Погода в Мазейке

Россия / Липецкая область     52°05′19″N   40°24′39″E
темп.,
°C
ветер,
м/с
пор.,
м/с
влажн.,
%
обл.,
%
осадки,
мм/ч
давл.,
гПа
погр.,
м
14 апреля, ср
ср1400:00+12юв4105792 0.0 1023210
03:00+10юв486397 0.0 1023145
06:00+9вюв3767100 0.0 1022137
09:00+14вюв5946100 0.0 1021400
12:00+18юв69305 0.0 10191289
15:00+20юв68265 0.0 10181910
18:00+18в4840100 0.0 1017165
21:00+15юв5124890 0.0 1017256
15 апреля, чт
чт1500:00+12вюв475898 0.0 1016103
03:00+11вюв366580 0.0 101694
06:00+9вюв3370100 0.0 101548
09:00+14ююв3454100 0.0 1015353
12:00+19ююв354290 0.0 10141289
15:00+20ю4641100 0.0 10142240
18:00+16юз4759100 0.1 1014364
21:00+14ююз127285 0.9 101536
16 апреля, пт
пт1600:00+13ююв2372100 0.1 101545
03:00+11зюз2477100 0.4 101697
06:00+11юв1289100 2.6 101675
09:00+13вюв227586 2.9 1017245
12:00+17юв345486 0.6 10171388
15:00+17ююв455288 2.4 10171455
18:00+15вюв466382 0.1 1016273
21:00+11в478131 0.1 1017142
17 апреля, сб
сб1700:00+11в348186 0.0 101867
03:00+11вюв3477100 0.0 101776
06:00+10ююз3479100 0.1 1018144
09:00+13в71166100 0.7 1017769
12:00+14ююв5867100 0.1 10181117
15:00+10ю4784100 1.2 1020503
18:00+10юз1278100 1.6 1020528
21:00+9в2491100 3.1 1021180
18 апреля, вс
вс1800:00+8в2494100 0.0 1022140
03:00+7вюв229715 0.0 102227
06:00+7св2397100 0.0 102296
09:00+8св5692100 2.5 1022426
12:00+8всв61090100 1.3 1023542
15:00+8в61288100 1.6 1024639
18:00+8в61179100 0.4 1024626
21:00+7всв61285100 0.8 1024840